This is the latest recevied weather packets stored in our database for station/object N4OOJ-13. If no packets are shown the sender has not sent any weather packets the latest 10 day(s).
| Time | Temp. | Humidity | Pressure | Rain* | Wind** | Luminosity | Snow |
|---|---|---|---|---|---|---|---|
| 1787607619 | 36.67° C | 50% | 1014.5 hPa | 0 mm | - | - | - |
| 1787607032 | 36.67° C | 47% | 1014.6 hPa | 0 mm | - | - | - |
| 1787606426 | 36.67° C | 47% | 1014.4 hPa | 0 mm | - | - | - |
| 1787605826 | 36.67° C | 46% | 1014.4 hPa | 0 mm | - | - | - |
| 1787605225 | 36.67° C | 48% | 1014.4 hPa | 0 mm | - | - | - |
| 1787604624 | 36.67° C | 45% | 1014.5 hPa | 0 mm | - | - | - |
| 1787604020 | 37.22° C | 45% | 1014.4 hPa | 0 mm | - | - | - |
| 1787603419 | 36.67° C | 45% | 1014.4 hPa | 0 mm | - | - | - |
| 1787602831 | 37.22° C | 43% | 1014.4 hPa | 0 mm | - | - | - |
| 1787602226 | 37.22° C | 44% | 1014.4 hPa | 0 mm | - | - | - |
| 1787601622 | 37.22° C | 46% | 1014.3 hPa | 0 mm | - | - | - |
| 1787601033 | 37.22° C | 45% | 1014.4 hPa | 0 mm | - | - | - |
| 1787600428 | 37.78° C | 44% | 1014.4 hPa | 0 mm | - | - | - |
| 1787599828 | 37.78° C | 45% | 1014.6 hPa | 0 mm | - | - | - |
| 1787599226 | 37.22° C | 46% | 1014.6 hPa | 0 mm | - | - | - |
| 1787598627 | 37.78° C | 48% | 1014.6 hPa | 0 mm | - | - | - |
| 1787598020 | 37.22° C | 47% | 1014.6 hPa | 0 mm | - | - | - |
| 1787597431 | 37.22° C | 47% | 1014.8 hPa | 0 mm | - | - | - |
| 1787596821 | 37.22° C | 49% | 1014.9 hPa | 0 mm | - | - | - |
| 1787596221 | 37.22° C | 48% | 1015 hPa | 0 mm | - | - | - |
| 1787595633 | 37.22° C | 46% | 1015 hPa | 0 mm | - | - | - |
| 1787595028 | 36.67° C | 48% | 1015.1 hPa | 0 mm | - | - | - |
| 1787594428 | 36.67° C | 48% | 1015.2 hPa | 0 mm | - | - | - |
| 1787593822 | 36.67° C | 51% | 1015.3 hPa | 0 mm | - | - | - |
| 1787593218 | 37.22° C | 51% | 1015.5 hPa | 0 mm | - | - | - |
* Rain latest hour (hover to see other rain measurements)
** Current wind speed in m/s (hover to see current wind gust speed)